Weather in Zapopan

Mexico     20°43′31″N   103°23′14″W
temp.,
°C
wind,
m/s
gust,
m/s
humid.,
%
clouds,
%
prec.,
mm/h
press.,
hPa
HPBL,
m
4 december, sat
sat400:00+15w114642 0.0 101711
03:00+13se11505 0.0 101710
06:00+13ese2251100 0.0 101812
09:00+17e1140100 0.0 1019163
12:00+27ene11225 0.0 10161211
15:00+28nne1118100 0.0 10122347
18:00+21wnw113051 0.0 101311
21:00+17ssw11367 0.0 101611
5 december, sun
sun500:00+14sw114542 0.0 101712
03:00+13se115655 0.0 101710
06:00+13sse1159100 0.0 101710
09:00+18se114544 0.0 1018191
12:00+26sw132957 0.0 10141620
15:00+26wsw4529100 0.0 10102427
18:00+22sw3838100 0.0 1012363
21:00+17sw2257100 0.0 101641
6 december, mon
mon600:00+15sw2165100 0.0 101817
03:00+14ssw1173100 0.0 101711
06:00+13s118399 0.0 101810
09:00+18ese116542 0.0 1020218
12:00+26sw123073 0.0 10171727
15:00+26wsw3320100 0.0 10132380
18:00+20wsw1136100 0.0 101412
21:00+16sw223999 0.0 101715
7 december, tue
tue700:00+13sw115213 0.0 101811
03:00+12sw116789 0.0 101710
06:00+11sse1174100 0.0 101610
09:00+16ene005768 0.0 1017152
12:00+25w23266 0.0 10141400
15:00+26w3520100 0.0 10102214
18:00+20w223011 0.0 101213
21:00+15sw223937 0.0 101616
8 december, wed
wed800:00+12wsw115243 0.0 101712
03:00+11ssw116098 0.0 101710
06:00+10se116594 0.0 101810
09:00+16e114663 0.0 1019146
12:00+26nne011938 0.0 10161032
15:00+28w231410 0.0 10111841
18:00+21wsw222658 0.0 101314
21:00+16sw223384 0.0 101617